Miscellaneous Local Product
Issued by NWS Hastings, NE

Home | Current Version | Previous Version | Graphics & Text | Print | Product List | Glossary On
Versions: 1 2 3 4 5 6 7 8 9 10 11 12 13 14 15 16 17 18 19 20 21 22 23 24 25 26 27 28 29 30 31 32 33 34 35 36 37 38 39 40 41 42 43 44 45 46 47 48 49 50
373
AXUS43 KGID 292102
MISGRI

GID CWA HOURLY WEATHER ROUNDUP
NATIONAL WEATHER SERVICE HASTINGS NE
400 PM CDT SAT APR 29 2017

NOTE: "FAIR" INDICATES FEW OR NO CLOUDS BELOW 12,000 FEET WITH NO
SIGNIFICANT WEATHER AND/OR OBSTRUCTIONS TO VISIBILITY.

...SOUTH CENTRAL NEBRASKA...

CITY           SKY/WX    TMP DP  RH WIND       PRES   REMARKS
GRAND ISLAND   CLOUDY    45  33  63 NE30G40   30.01F
HASTINGS       CLOUDY    43  34  70 N29G37    29.99F
KEARNEY        CLOUDY    45  30  57 N26G35    30.01F
ORD            CLOUDY    46  28  49 NE22G29   30.08F
YORK           CLOUDY    43  36  75 NE30      29.98F
AURORA         CLOUDY    44  32  64 N26G35    29.99F
LEXINGTON      CLOUDY    42  33  71 N25G31    30.05F
HOLDREGE       CLOUDY    43  32  65 N31G38    30.01F
HEBRON         LGT RAIN  42  39  89 NE22G30   29.94F

...NEBRASKA PANHANDLE...

CITY           SKY/WX    TMP DP  RH WIND       PRES   REMARKS
CHADRON        CLOUDY    51  26  37 N13G21    30.20F
ALLIANCE       CLOUDY    48  22  35 NE16G29   30.15F
SCOTTSBLUFF    CLOUDY    44  25  47 N16       30.20F
SIDNEY         CLOUDY    42  19  39 NE23      30.15F

...WESTERN AND NORTH CENTRAL NEBRASKA...

CITY           SKY/WX    TMP DP  RH WIND       PRES   REMARKS
VALENTINE      CLOUDY    56  12  17 NE22G31   30.15F
AINSWORTH      CLOUDY    51  24  34 NE28      30.14F
ONEILL         CLOUDY    52  23  31 NE21G31   30.12F
BROKEN BOW     CLOUDY    46  29  51 NE22G31   30.09F
IMPERIAL       CLOUDY    44  23  43 NE25G35   30.10F
NORTH PLATTE   CLOUDY    46  26  45 NE23G32   30.12F
MCCOOK         CLOUDY    41  35  79 N23G31    30.05F

...EASTERN NEBRASKA...

CITY           SKY/WX    TMP DP  RH WIND       PRES   REMARKS
NORFOLK        CLOUDY    47  28  47 N17G29    30.06F
SO SIOUX CITY  CLOUDY    52  32  46 NE16G31   30.08F
TEKAMAH        CLOUDY    48  36  63 NE29G36   30.04F
COLUMBUS       CLOUDY    46  32  57 NE21G30   30.04S
ALBION         CLOUDY    47  30  51 NE17G25   30.07F
OMAHA EPPLEY   CLOUDY    46  36  68 NE25G35   29.99F
OFFUTT AFB     CLOUDY    44  38  77 N18G30    29.96R
MILLARD        CLOUDY    47  38  71 NE12G21   29.99R
LINCOLN        CLOUDY    46  37  71 NE25G35   29.98R
NEBRASKA CITY  CLOUDY    42  42  99 NE21G32   29.92R
BEATRICE       LGT RAIN  43  42  95 N21G33    29.95R
FALLS CITY     CLOUDY    46  43  89 NE18G28   29.85R

...NORTHERN KANSAS...

CITY           SKY/WX    TMP DP  RH WIND       PRES   REMARKS
GOODLAND       CLOUDY    35  33  92 N26G35    30.03S WCI  22
HILL CITY      LGT RAIN  40  37  89 N28G43    29.97F FOG     WCI  29
NORTON         DRIZZLE   39  32  75 N25G37    29.98F WCI  28
PHILLIPSBURG   DRIZZLE   41  37  87 N29G36    29.96F
RUSSELL        CLOUDY    42  40  92 N26G33    29.87F FOG
CONCORDIA      LGT RAIN  43  42  97 N22G29    29.89S FOG
SALINA         LGT RAIN  47  44  90 N20G26    29.84S FOG
TOPEKA         LGT RAIN  49  49 100 N10       29.76R



USA.gov is the U.S. government's official web portal to all federal, state and local government web resources and services.